Location: C�an Torras
(41.5052°N, 1.9280°E)
Time: 20:17:47
(UTC+00:00)

Cosmos 2279 Rocket - Pass Details

Date: 20 January 2021
Orbit: 963 x 979 km, 82.9° (Epoch: 02 March)

Event Time Altitude Azimuth Distance (km) Brightness Sun altitude
Rises 17:56:15 0° 350° (N) 3,691 7.0 -11.8°
Reaches altitude 10° 17:58:47 10° 350° (N) 2,739 6.3 -12.2°
Maximum altitude 18:05:03 77° 265° (W) 1,007 4.2 -13.4°
Drops below altitude 10° 18:11:16 10° 181° (S) 2,713 6.5 -14.5°
Sets 18:13:45 0° 180° (S) 3,655 7.2 -14.9°
